Home   Weather   Lagos   Past weeks

Flag for Nigeria Past Weather in Lagos, Nigeria — Yesterday and Last 2 Weeks

Now
93 °F

Partly sunny.


Feels Like: 107 °F
Forecast: 78 / 93 °F
Wind: 7 mph from Southwest

Location: Lagos / Ikeja

Current Time: Apr 30, 2017 at 2:17:02 pm

Latest Report: Apr 30, 2017 at 1:00 pm


Visibility: N/A

Pressure: 29.92 "Hg

Humidity: 59%

Dew Point: 77 °F

Location of LagosLocation

Past Weather in Lagos — Graph

°F

Lagos Temperature Yesterday

Maximum temperature yesterday: 93 °F (at 3:00 pm)
Minimum temperature yesterday: 81 °F (at 2:00 am)
Average temperature yesterday: 85 °F

High & Low Weather Summary for the Past Weeks

 TemperatureHumidityPressure
High93 °F (Apr 16, 1:00 pm)100% (Apr 20, 12:00 am)29.98 "Hg (Apr 20, 12:00 am)
Low73 °F (Apr 21, 7:00 am)53% (Apr 16, 1:00 pm)29.77 "Hg (Apr 18, 5:00 pm)
Average84 °F80%29.88 "Hg
* Reported Apr 16 1:00 pm — Apr 30 1:00 pm, Lagos, Weather by CustomWeather, © 2017

Note: Actual official high and low records may vary slightly from our data, if they occured in-between our weather recording intervals... More about our weather records

Advertising

Lagos Weather History for the Previous 24 Hours

Scroll right to see more
 ConditionsComfort  
Time TempWeatherWind HumidityBarometerVisibility
1:00 pm
Sun, Apr 30
93 °FPartly sunny.7 mph59%29.92 "HgN/A
12:00 pm93 °FPartly sunny.8 mph59%29.95 "HgN/A
11:00 am90 °FPartly sunny.7 mph67%29.95 "HgN/A
10:00 am88 °FPartly sunny.7 mph75%29.95 "HgN/A
9:00 am86 °FScattered clouds.6 mph79%29.95 "Hg5 mi
8:00 am82 °FPassing clouds.2 mph89%29.95 "Hg5 mi
7:00 am79 °FPassing clouds.No wind94%29.92 "Hg5 mi
5:00 am79 °FPassing clouds.No wind94%29.89 "HgN/A
3:00 am81 °FPassing clouds.No wind89%29.92 "HgN/A
2:00 am81 °FPassing clouds.No wind89%29.92 "HgN/A
1:00 am81 °FPassing clouds.No wind89%29.92 "HgN/A
12:00 am82 °FPassing clouds.2 mph89%29.92 "HgN/A
11:00 pm
Sat, Apr 29
82 °FPassing clouds.2 mph89%29.92 "HgN/A
10:00 pm82 °FPassing clouds.5 mph94%29.92 "HgN/A
8:00 pm84 °FPassing clouds.5 mph74%29.89 "HgN/A
7:00 pm86 °FPassing clouds.6 mph66%29.86 "HgN/A
6:00 pm88 °FPassing clouds.3 mph66%29.86 "HgN/A
5:00 pm90 °FPassing clouds.5 mph59%29.86 "HgN/A
4:00 pm91 °FScattered clouds.9 mph59%29.86 "HgN/A
3:00 pm93 °FScattered clouds.9 mph59%29.86 "HgN/A
2:00 pm91 °FPartly sunny.12 mph63%29.89 "HgN/A
Weather by CustomWeather, © 2017

See weather overviewHow to use our weather pages